Current Version              Previous Version:    01  02  03  04  05  06  07  08  09  10  11  12  13  14  15  16  17  18  19  20  21  22  23  24  25  26  27  28  29  30  
   31  32  33  34  35  36  37  38  39  40  41  42  43  44  45  46  47  48  49  50  51  52  53  54  55  56  57  58  59  60  

[Printable]
295
ASUS44 KEWX 020110
RWRTX
SOUTH TEXAS REGIONAL WEATHER ROUNDUP
NATIONAL WEATHER SERVICE AUSTIN/SAN ANTONIO TX
800 PM CDT WED OCT 01 2014

NOTE: "FAIR" INDICATED FEW OR NO CLOUDS BELOW 12,000 FEET WITH NO
SIGNIFICANT WEATHER AND/OR OBSTRUCTIONS TO VISIBILITY.

* - THESE STATIONS ARE NOT NWS OR FAA STATIONS...AND ARE NOT SUBJECT
    TO NWS AND FAA QUALITY CONTROL.

TXZ171-172-183>190-020200-
TEXAS HILL COUNTRY AND EDWARDS PLATEAU

CITY           SKY/WX    TMP DP  RH WIND       PRES   REMARKS
JUNCTION       CLEAR     86  63  45 SE6       29.79R
*LLANO         PTCLDY    84  66  54 S6        29.81R
BURNET         PTCLDY    84  66  54 SE6       29.82R
*HORSESHOE BAY PTCLDY    83  65  54 S3        29.79R
*KERRVILLE     CLEAR     82  69  65 SE3       29.82R
*FREDERICKSBRG PTCLDY    81  66  60 S3        29.82R
*ROCKSPRINGS   CLEAR     81  66  61 SE10      29.86R
*BOERNE STAGE  CLEAR     81  64  57 SE6       29.82R
*CASTROVILLE   CLEAR     86  65  48 SE7       29.79R
HONDO          CLEAR     87  65  47 SE10      29.79R
*UVALDE        CLEAR     83  67  58 SE5       29.77R
DEL RIO        CLEAR     87  65  47 SE8       29.73R
LAUGHLIN AFB   PTCLDY    85  68  56 S7        29.74R
CARRIZO SPRGS  CLEAR     86  70  58 SE5       29.73R HX  90
$$

TXZ173-191>194-202-209-217>225-228-020200-
CENTRAL AND SOUTH CENTRAL TEXAS

CITY           SKY/WX    TMP DP  RH WIND       PRES   REMARKS
GEORGETOWN     CLEAR     86  66  51 S3        29.78R
AUSTIN/BERGSTM PTCLDY    85  70  60 S7        29.76R
AUSTIN/MABRY   CLEAR     85  68  56 S3        29.78R
*AUSTIN/EXEC   CLEAR     82  68  61 S3        29.78R
*LAGO VISTA    CLEAR     84  65  53 S5        29.81R
SAN MARCOS     PTCLDY    84  64  51 S3        29.78R
NEW BRAUNFELS  CLEAR     81  67  62 S6        29.77R
RANDOLPH AFB   CLEAR     82  67  60 S6        29.78R
PT SAN ANTONIO CLEAR     86  67  53 SE10      29.76R
SAN ANTONIO    PTCLDY    87  66  49 SE9       29.78R
STINSON FIELD  CLEAR     84  67  56 SE6       29.76R
*PLEASANTON    CLEAR     86  66  52 SE5       29.77R
*LA GRANGE     PTCLDY    85  74  70 S7        29.77R HX  93
*GIDDINGS      CLEAR     83  71  66 S3        29.82R
*GONZALES      CLEAR     85  73  65 S12       29.77R HX  92
$$

TXZ163>164-176>182-195>201-210>213-226-227-235-020200-
SOUTHEAST TEXAS

CITY           SKY/WX    TMP DP  RH WIND       PRES   REMARKS
COLLEGE STN    CLEAR     83  72  69 SE8       29.78R
*BRYAN         CLEAR     81  72  75 SE7       29.80R
*CALDWELL      CLEAR     82  72  69 SE6       29.81R
*CROCKETT      PTCLDY    84  75  74 SE5       29.83R HX  92
*BRENHAM       PTCLDY    86  73  64 SE7       29.79R HX  92
HUNTSVILLE     CLEAR     84  73  69 VRB6      29.80R HX  90
CONROE         PTCLDY    81  74  79 SE3       29.81R
HOUSTON BUSH   PTCLDY    84  73  69 S12       29.80R HX  90
HOUSTON HOBBY  PTCLDY    81  75  82 S6        29.81R
*HOUSTON SW AP CLEAR     73  68  86 CALM      29.82R
PEARLAND       CLEAR     83  75  77 SE6       29.83R HX  90
HOUSTON HOOKS  PTCLDY    85  73  67 S6        29.80R HX  91
ELLINGTON FLD  NOT AVBL
SUGAR LAND     CLEAR     82  74  76 S7        29.80R
*HOUSTON EXEC  CLEAR     81  75  83 S9        29.81R
*CLEVELAND MUN CLEAR     78  75  90 CALM      29.82S
*WHARTON       CLEAR     78  74  86 SE6       29.82R
*COLUMBUS      FAIR      82  73  73 S8        29.79R
$$

TXZ214>216-236>238-020200-
THE UPPER TEXAS COAST

CITY           SKY/WX    TMP DP  RH WIND       PRES   REMARKS
*ORANGE        MOCLDY    81  81 100 SE3       29.85R HX  91
PORT ARTHUR    CLEAR     80  76  87 S7        29.83R
GALVESTON      CLEAR     83  79  88 S12       29.83R HX  94
ANGLETON       CLEAR     78  75  90 S6        29.82R
*BAY CITY      CLEAR     80  77  89 SE5       29.81S
PALACIOS       CLEAR     82  77  84 SE9       29.80S HX  90
$$

TXZ229>234-239>247-020200-
TEXAS COASTAL BEND AND RIO GRANDE PLAINS

CITY           SKY/WX    TMP DP  RH WIND       PRES   REMARKS
VICTORIA       CLEAR     83  76  79 S9        29.80R HX  91
*BEEVILLE      CLEAR     82  75  80 SE10      29.78R
ROCKPORT       CLEAR     83  78  85 SE9       29.78R HX  93
*PORT ARANSAS  CLEAR     82  79  89 SE9       29.79R HX  93
*PORT LAVACA   CLEAR     80  76  89 SE8       29.80R
*INGLESIDE     CLEAR     83  78  85 SE10      29.79R HX  94
CORPUS CHRISTI PTCLDY    82  78  88 SE13      29.78R HX  91
CORPUS NAS     MOCLDY    84  80  88 SE12      29.78R HX  97
*ROBSTOWN      NOT AVBL
ALICE          CLEAR     83  77  82 SE14      29.77R HX  92
KINGSVILLE NAS PTCLDY    83  80  91 SE9       29.77R HX  95
COTULLA        CLEAR     90  68  48 SE12      29.75R HX  94
*FAITH RANCH   CLEAR     86  68  54 SE7       29.74R
LAREDO         CLEAR     89  72  57 SE12      29.76R HX  96
$$

TXZ248>255-020200-
DEEP SOUTH TEXAS

CITY           SKY/WX    TMP DP  RH WIND       PRES   REMARKS
BROWNSVILLE    CLEAR     83  81  94 SE10      29.78R HX  97
PORT ISABEL    CLEAR     84  77  79 SE15      29.78R HAZE    HX  94
*SOUTH PADRE   CLEAR     84  81  89 S12       29.79R HX  98
HARLINGEN      CLEAR     82  77  84 SE9       29.77R HX  90
*HEBBRONVILLE  CLEAR     83  73  69 SE8       29.78S
MCALLEN        CLEAR     83  76  79 SE10      29.76R HX  91
*WESLACO       CLEAR     83  74  72 SE9       29.76R HX  90
FALFURRIAS     PTCLDY    83  78  86 E5        29.76R HX  94
EDINBURG       CLEAR     84  74  71 SE5       29.76R HX  91
*ZAPATA        CLEAR     86  71  59 SE5       29.74R HX  91
$$

TXZ213>215-236>238-242>244-246-247-251-254-255-020200-
CMAN STATIONS

STATION/POSITION TIME  TEMP    WIND        PRES    WAVE
                       AIR SEA DIR/SP/G            HT/PER
                 (UTC) (F)     (DEG/KT/KT) (MB)    (FT/S)
SABINE PASS      0100   82 82  180/  8/ 12 1010.3
SEA RIM ST PARK  0000   82     180/  9/ 11 1010.2
NORTH JETTY/GLS  0100   82 82  190/ 13/ 14   N/A
EAGLE POINT      0100   83 84  190/ 12/ 14 1009.7
MORGANS POINT    0100   83     180/  6/  9 1009.6
MISSION/ARANSAS  0000          140/ 13     1009.0
PORT O`CONNOR    0100          140/ 12/ 13   N/A
PORT ARANSAS     0000   83 84  120/ 11/ 13 1009.3
MALAQUITE BEACH  0100   83 84  130/ 14/ 17 1007.9
BAFFIN BAY       0100   83 87  140/ 13/ 17 1008.1
PORT ISABEL      0100   84 84  140/ 15/ 19 1008.9
$$

GMZ080-GMZ150>470-020200-
OFFSHORE BUOY REPORTS

STATION/POSITION TIME  TEMP    WIND        PRES    WAVE
                       AIR SEA DIR/SP/G            HT/PER
                 (UTC) (F)     (DEG/KT/KT) (MB)    (FT/S)
20 E GALVESTON   0100   83 83  170/ 12/ 14 1009.6    2/ 5
90 E PT ARANSAS  0100   83 84  150/ 10/ 12 1010.1    2/ 5
35 NE PT MANSFLD 0100   84 84  150/ 16/ 17 1008.1    2/ 4
200 E PT ISABEL  0100   84 84  160/ 12/ 14 1011.2    2/ 4
$$